{"data":{"norad_id":66620,"epoch":"2026-05-24T23:37:32.439072Z","epoch_age_seconds":72362,"freshness":"FRESH","line1":"1 66620U 25271D   26144.98440323  .00011954  00000+0  41498-3 0  9995","line2":"2 66620  53.1582 145.8450 0001210  82.9283 277.1855 15.30208318 29242","mean_motion":15.30208318,"eccentricity":0.000121,"inclination_deg":53.1582,"raan_deg":145.845,"arg_perigee_deg":82.9283,"mean_anomaly_deg":277.1855,"bstar":0.00041498,"rev_number":2924,"period_min":94.104834162848,"perigee_km":474.36098088791,"apogee_km":476.01948607841,"semimajor_km":6853.3272334832,"source":"CELESTRAK","updated_at":"2026-05-25T13:38:21.294510Z"}}